User: anonymous   Login
Location: Corralito
(10.2667°N, 66.9500°W)
Time: 10:09:23
(UTC+00:00)
Language:

Cosmos 1153 Rocket - Orbit

View from above orbital plane
View from above orbital plane
View from above satellite
View from above satellite

Ground track
Ground track

The orbit data is extracted from the following two-line orbital elements,

1 11681U 80007B   23267.22219118  .00000108  00000-0  96005-4 0  9991
2 11681  82.9335 153.9568 0037565  77.6817  41.3725 13.75550269191194
Epoch (UTC): 24 September 2023 05:19:57
Eccentricity: 0.0037565
inclination: 82.9335°
perigee height: 952 km
apogee height: 1007 km
right ascension of ascending node: 153.9568°
argument of perigee: 77.6817°
revolutions per day: 13.75550269
mean anomaly at epoch: 41.3725°
orbit number at epoch: 19119

The dashed part of the orbit path shows where the satellite is in the earth's shadow,  

DLR